• In Hungary
  • List of Countries
  • For 7 days
  • Water Temperature
  • Satellite Maps
  • Weather Map
  • News
  • Weather Widgets
  • user-avatar
    Login

    Hourly Weather San Marcos de Colón

    Today, 23 June, Saturday

    Time Temperature Precipitation Wind Pressure Humidity
    00:00 +21°C° 0 mm 1 mps 679 mmHg 90%
    01:00 +21°C° 0 mm 1 mps 679 mmHg 90%
    02:00 +20°C° 0 mm 1 mps 678 mmHg 90%
    03:00 +20°C° 0 mm 1 mps 678 mmHg 91%
    04:00 +20°C° 0 mm 1 mps 678 mmHg 91%
    05:00 +20°C° 0 mm 1 mps 678 mmHg 90%
    06:00 +20°C° 0 mm 1 mps 679 mmHg 90%
    07:00 +22°C° 0 mm 1 mps 679 mmHg 81%
    08:00 +25°C° 0 mm 2 mps 680 mmHg 73%
    09:00 +27°C° 0 mm 2 mps 680 mmHg 64%
    10:00 +28°C° 0 mm 2 mps 680 mmHg 59%
    11:00 +29°C° 0 mm 2 mps 680 mmHg 54%
    12:00 +31°C° 0 mm 2 mps 680 mmHg 48%
    13:00 +31°C° 0 mm 2 mps 680 mmHg 48%
    14:00 +31°C° 0 mm 2 mps 679 mmHg 47%
    15:00 +31°C° 0 mm 2 mps 679 mmHg 46%
    16:00 +29°C° 0 mm 2 mps 678 mmHg 53%
    17:00 +27°C° 0 mm 2 mps 678 mmHg 60%
    18:00 +26°C° 0 mm 1 mps 678 mmHg 67%
    19:00 +24°C° 0 mm 1 mps 678 mmHg 71%
    20:00 +23°C° 0 mm 1 mps 678 mmHg 74%
    21:00 +22°C° 0 mm 1 mps 679 mmHg 78%
    22:00 +21°C° 0 mm 1 mps 679 mmHg 80%
    23:00 +21°C° 0 mm 1 mps 679 mmHg 83%

    Tomorrow, 24 June, Sunday

    Time Temperature Precipitation Wind Pressure Humidity
    00:00 +20°C° 0 mm 1 mps 679 mmHg 85%
    01:00 +20°C° 0 mm 1 mps 678 mmHg 86%
    02:00 +20°C° 0 mm 1 mps 678 mmHg 88%
    03:00 +19°C° 0 mm 1 mps 678 mmHg 89%
    04:00 +19°C° 0 mm 1 mps 678 mmHg 89%
    05:00 +20°C° 0 mm 1 mps 678 mmHg 89%
    06:00 +20°C° 0 mm 1 mps 678 mmHg 88%
    07:00 +21°C° 0 mm 2 mps 679 mmHg 80%
    08:00 +24°C° 0 mm 2 mps 679 mmHg 71%
    09:00 +26°C° 0 mm 2 mps 680 mmHg 62%
    10:00 +27°C° 0 mm 2 mps 680 mmHg 59%
    11:00 +28°C° 0 mm 2 mps 679 mmHg 55%
    12:00 +29°C° 0 mm 3 mps 679 mmHg 52%
    13:00 +29°C° 0 mm 3 mps 679 mmHg 52%
    14:00 +30°C° 0 mm 3 mps 678 mmHg 51%
    15:00 +30°C° 0 mm 3 mps 678 mmHg 51%
    16:00 +28°C° 0 mm 2 mps 678 mmHg 58%
    17:00 +27°C° 0 mm 2 mps 678 mmHg 64%
    18:00 +25°C° 0 mm 2 mps 678 mmHg 71%
    19:00 +24°C° 0 mm 2 mps 678 mmHg 75%
    20:00 +23°C° 0 mm 2 mps 678 mmHg 78%
    21:00 +21°C° 0 mm 2 mps 679 mmHg 82%
    22:00 +21°C° 0 mm 2 mps 679 mmHg 84%
    23:00 +20°C° 0 mm 2 mps 679 mmHg 86%

    Day after tomorrow, 25 June, Monday

    Time Temperature Precipitation Wind Pressure Humidity
    00:00 +20°C° 0 mm 2 mps 679 mmHg 89%
    01:00 +19°C° 0 mm 2 mps 678 mmHg 89%
    02:00 +19°C° 0 mm 2 mps 678 mmHg 90%
    03:00 +19°C° 0 mm 2 mps 677 mmHg 91%
    04:00 +19°C° 0 mm 2 mps 678 mmHg 91%
    05:00 +19°C° 0 mm 2 mps 678 mmHg 90%
    06:00 +19°C° 0 mm 2 mps 678 mmHg 89%
    07:00 +21°C° 0 mm 2 mps 679 mmHg 79%
    08:00 +24°C° 0 mm 2 mps 679 mmHg 70%
    09:00 +26°C° 0 mm 3 mps 680 mmHg 60%
    10:00 +27°C° 0 mm 3 mps 680 mmHg 57%
    11:00 +28°C° 0 mm 3 mps 680 mmHg 53%
    12:00 +29°C° 0 mm 3 mps 680 mmHg 50%
    13:00 +29°C° 0.1 mm 3 mps 679 mmHg 51%
    14:00 +29°C° 0.1 mm 3 mps 679 mmHg 51%
    15:00 +29°C° 0.1 mm 3 mps 678 mmHg 52%
    16:00 +28°C° 0.1 mm 2 mps 678 mmHg 59%
    17:00 +26°C° 0.1 mm 2 mps 678 mmHg 65%
    18:00 +24°C° 0.1 mm 1 mps 678 mmHg 72%
    19:00 +23°C° 0 mm 1 mps 678 mmHg 76%
    20:00 +22°C° 0 mm 1 mps 679 mmHg 79%
    21:00 +20°C° 0 mm 2 mps 679 mmHg 83%
    22:00 +20°C° 0 mm 2 mps 679 mmHg 84%
    23:00 +21°C° 0 mm 1 mps 679 mmHg 84%

    26 June, Tuesday

    Time Temperature Precipitation Wind Pressure Humidity
    00:00 +21°C° 0 mm 1 mps 679 mmHg 85%
    01:00 +21°C° 0 mm 1 mps 678 mmHg 85%
    02:00 +20°C° 0 mm 2 mps 678 mmHg 86%
    03:00 +20°C° 0 mm 2 mps 678 mmHg 87%
    04:00 +20°C° 0 mm 2 mps 678 mmHg 86%
    05:00 +20°C° 0 mm 2 mps 678 mmHg 86%
    06:00 +20°C° 0 mm 2 mps 678 mmHg 86%
    07:00 +21°C° 0 mm 2 mps 679 mmHg 80%
    08:00 +24°C° 0 mm 3 mps 680 mmHg 73%
    09:00 +25°C° 0 mm 3 mps 680 mmHg 67%
    10:00 +25°C° 0 mm 3 mps 680 mmHg 65%
    11:00 +26°C° 0 mm 3 mps 680 mmHg 64%
    12:00 +26°C° 0 mm 3 mps 679 mmHg 62%
    13:00 +26°C° 0 mm 3 mps 679 mmHg 64%
    14:00 +25°C° 0 mm 3 mps 678 mmHg 66%
    15:00 +25°C° 0 mm 2 mps 677 mmHg 68%
    16:00 +24°C° 0.1 mm 2 mps 678 mmHg 72%
    17:00 +23°C° 0.1 mm 2 mps 678 mmHg 77%
    18:00 +21°C° 0.1 mm 2 mps 678 mmHg 81%
    19:00 +20°C° 0.1 mm 2 mps 678 mmHg 83%
    20:00 +20°C° 0.1 mm 2 mps 679 mmHg 85%
    21:00 +20°C° 0.1 mm 2 mps 679 mmHg 87%
    22:00 +20°C° 0 mm 2 mps 679 mmHg 87%
    23:00 +19°C° 0 mm 2 mps 679 mmHg 87%

    27 June, Wednesday

    Time Temperature Precipitation Wind Pressure Humidity
    00:00 +19°C° 0 mm 2 mps 678 mmHg 87%
    01:00 +19°C° 0.1 mm 2 mps 678 mmHg 87%
    02:00 +19°C° 0.1 mm 2 mps 678 mmHg 87%
    03:00 +19°C° 0.1 mm 2 mps 677 mmHg 87%
    04:00 +19°C° 0.1 mm 2 mps 677 mmHg 87%
    05:00 +19°C° 0.1 mm 2 mps 678 mmHg 88%
    06:00 +19°C° 0.1 mm 2 mps 678 mmHg 88%
    07:00 +20°C° 0.1 mm 2 mps 678 mmHg 84%
    08:00 +23°C° 0.1 mm 2 mps 679 mmHg 79%
    09:00 +24°C° 0.1 mm 3 mps 679 mmHg 75%
    10:00 +24°C° 0.2 mm 3 mps 679 mmHg 75%
    11:00 +24°C° 0.2 mm 2 mps 679 mmHg 76%
    12:00 +24°C° 0.2 mm 2 mps 678 mmHg 76%
    13:00 +24°C° 0.2 mm 3 mps 678 mmHg 77%
    14:00 +22°C° 0.2 mm 3 mps 678 mmHg 78%
    15:00 +22°C° 0.2 mm 3 mps 677 mmHg 78%
    16:00 +22°C° 0.1 mm 3 mps 678 mmHg 81%
    17:00 +21°C° 0.1 mm 2 mps 678 mmHg 84%
    18:00 +20°C° 0.1 mm 2 mps 678 mmHg 87%
    19:00 +20°C° 0 mm 2 mps 678 mmHg 88%
    20:00 +19°C° 0 mm 2 mps 678 mmHg 88%
    21:00 +19°C° 0 mm 2 mps 679 mmHg 89%
    22:00 +19°C° 0.2 mm 2 mps 679 mmHg 90%
    23:00 +19°C° 0.2 mm 2 mps 679 mmHg 90%

    28 June, Thursday

    Time Temperature Precipitation Wind Pressure Humidity
    00:00 +19°C° 0.2 mm 2 mps 678 mmHg 90%
    01:00 +19°C° 0.1 mm 2 mps 678 mmHg 90%
    02:00 +19°C° 0.1 mm 2 mps 678 mmHg 90%
    03:00 +19°C° 0.1 mm 2 mps 677 mmHg 91%
    04:00 +19°C° 0 mm 2 mps 678 mmHg 90%
    05:00 +19°C° 0 mm 2 mps 678 mmHg 90%
    06:00 +19°C° 0 mm 2 mps 678 mmHg 89%
    07:00 +21°C° 0 mm 2 mps 678 mmHg 83%
    08:00 +22°C° 0 mm 3 mps 679 mmHg 76%
    09:00 +25°C° 0 mm 3 mps 679 mmHg 70%
    10:00 +25°C° 0.1 mm 3 mps 679 mmHg 70%
    11:00 +25°C° 0.1 mm 3 mps 679 mmHg 69%
    12:00 +25°C° 0.1 mm 3 mps 679 mmHg 69%
    13:00 +24°C° 1.5 mm 3 mps 678 mmHg 75%
    14:00 +22°C° 1.5 mm 3 mps 677 mmHg 82%
    15:00 +21°C° 1.5 mm 2 mps 677 mmHg 88%
    16:00 +21°C° 1 mm 2 mps 677 mmHg 89%
    17:00 +20°C° 1 mm 2 mps 677 mmHg 90%
    18:00 +20°C° 1 mm 2 mps 678 mmHg 91%
    19:00 +20°C° 0 mm 2 mps 678 mmHg 91%
    20:00 +19°C° 0 mm 2 mps 678 mmHg 92%
    21:00 +19°C° 0 mm 2 mps 679 mmHg 93%
    22:00 +19°C° 0 mm 2 mps 679 mmHg 93%
    23:00 +19°C° 0 mm 2 mps 679 mmHg 93%
    Show more